Weather History for Pardubice, Czech Republic

Change the Weather History Date:

Friday, April 5, 2013

  Actual Average Record
Temperature  
Mean Temperature 34 °F -  
Max Temperature 37 °F - - ()
Min Temperature 32 °F - - ()
Degree Days  
Heating Degree Days 30    
Moisture  
Dew Point 31 °F    
Average Humidity 86    
Maximum Humidity 93    
Minimum Humidity 75    
Precipitation  
Precipitation 0.00 in - - ()
Sea Level Pressure  
Sea Level Pressure 29.75 in    
Wind  
Wind Speed 2 mph ()    
Max Wind Speed 5 mph    
Max Gust Speed -    
Visibility 3.3 miles    
Events      
T = Trace of Precipitation, MM = Missing Value Source: Averaged Metar Reports

Daily Weather History Graph

Daily Weather History Graph

Search for Another Location

Airport:

Trip Planner

Search our weather history database for the weather conditions in past years. The results will help you decide how hot, cold, wet, or windy it might be!

Date:

Astronomy

Apr. 05, 2013 Rise Set
Actual Time 6:25 AM CEST 7:35 PM CEST
Civil Twilight 5:52 AM CEST 8:08 PM CEST
Nautical Twilight 5:12 AM CEST 8:48 PM CEST
Astronomical Twilight 4:29 AM CEST 9:31 PM CEST
Moon 3:50 AM CEST (4/5) 2:13 PM CEST (4/5)
Length of Visible Light 14h 16m
Length of Day
13h 10m
Waning Crescent, 26% of the Moon is Illuminated
Apr 5
Waning Crescent
Apr 10
New
Apr 18
First Quarter
Apr 25
Full
May 2
Last Quarter

Hourly Weather History & Observations

Time (CEST) Temp. Windchill Dew Point Humidity Pressure Visibility Wind Dir Wind Speed Gust Speed Precip Events Conditions
12:00 AM 33.8 °F - 28.4 °F 81% 29.83 in 6.2 mi Calm Calm - N/A   Overcast
1:00 AM 32.0 °F - 28.4 °F 87% 29.80 in 6.2 mi Calm Calm - N/A   Overcast
2:00 AM 33.8 °F 29.6 °F 28.4 °F 81% 29.80 in 6.2 mi NE 4.6 mph - N/A   Overcast
3:00 AM 33.8 °F - 28.4 °F 81% 29.77 in 6.2 mi Variable 1.2 mph - N/A   Overcast
4:00 AM 33.8 °F - 28.4 °F 81% 29.77 in 6.2 mi Calm Calm - N/A   Overcast
5:00 AM 33.8 °F - 28.4 °F 81% 29.74 in 6.2 mi Calm Calm - N/A   Overcast
6:00 AM 33.8 °F 30.8 °F 28.4 °F 81% 29.74 in 6.2 mi ENE 3.5 mph - N/A   Overcast
7:00 AM 33.8 °F 30.8 °F 28.4 °F 81% 29.74 in 3.7 mi ENE 3.5 mph - N/A   Overcast
8:00 AM 33.8 °F - 28.4 °F 81% 29.74 in 3.7 mi Variable 2.3 mph - N/A   Overcast
9:00 AM 33.8 °F - 30.2 °F 87% 29.74 in 3.1 mi Variable 2.3 mph - N/A   Overcast
10:00 AM 35.6 °F 32.8 °F 28.4 °F 75% 29.74 in 3.1 mi ENE 3.5 mph - N/A   Overcast
11:00 AM 35.6 °F 32.8 °F 28.4 °F 75% 29.74 in 3.1 mi ENE 3.5 mph - N/A   Overcast
12:00 PM 37.4 °F 34.9 °F 30.2 °F 75% 29.74 in 3.7 mi East 3.5 mph - N/A   Overcast
1:00 PM 37.4 °F 33.8 °F 30.2 °F 75% 29.71 in 3.7 mi East 4.6 mph - N/A   Overcast
1:31 PM 35.6 °F - 32.0 °F 87% 29.71 in 2.2 mi Variable 2.3 mph - N/A   Light Drizzle
2:00 PM 35.6 °F 32.8 °F 33.8 °F 93% 29.71 in 1.9 mi NE 3.5 mph - N/A   Light Drizzle
2:10 PM 35.6 °F 32.8 °F 33.8 °F 93% 29.71 in 1.6 mi NE 3.5 mph - N/A   Light Drizzle
3:00 PM 35.6 °F 32.8 °F 33.8 °F 93% 29.71 in 1.6 mi NE 3.5 mph - N/A   Light Drizzle
4:00 PM 35.6 °F - 33.8 °F 93% 29.71 in 1.6 mi Variable 2.3 mph - N/A   Light Drizzle
5:00 PM 35.6 °F - 33.8 °F 93% 29.71 in 1.6 mi Variable 2.3 mph - N/A   Light Drizzle
5:50 PM 35.6 °F 32.8 °F 33.8 °F 93% 29.74 in 1.2 mi North 3.5 mph - N/A   Drizzle
6:00 PM 35.6 °F 32.8 °F 33.8 °F 93% 29.74 in 1.2 mi North 3.5 mph - N/A   Drizzle
7:00 PM 35.6 °F 32.8 °F 33.8 °F 93% 29.74 in 1.2 mi NNE 3.5 mph - N/A   Drizzle
8:00 PM 35.6 °F 31.7 °F 33.8 °F 93% 29.77 in 1.2 mi North 4.6 mph - N/A   Light Drizzle
9:00 PM 33.8 °F 30.8 °F 32.0 °F 93% 29.77 in 1.9 mi North 3.5 mph - N/A   Light Drizzle
9:14 PM 33.8 °F - 32.0 °F 93% 29.77 in 2.5 mi Variable 1.2 mph - N/A   Light Drizzle
10:00 PM 33.8 °F - 32.0 °F 93% 29.80 in 2.5 mi Variable 2.3 mph - N/A   Light Drizzle
10:19 PM 33.8 °F - 32.0 °F 93% 29.80 in 3.1 mi Variable 1.2 mph - N/A   Overcast
11:00 PM 35.6 °F - 30.2 °F 81% 29.80 in 3.1 mi Variable 2.3 mph - N/A   Overcast